N5TM-4 Weather Reports


Display with metric or nautical units.
time (UTC)temp
F
wind
direction
speed
MPH
gust
MPH
rain 1hr
in
rain 24hr
in
rain mn
in
humidity
%
barometer
mb
20260504050531 62 163 0.0 2.0 0.00 0.00 0.00 69 1018.8
20260504045531 62 163 0.0 1.0 0.00 0.00 0.00 69 1018.7
20260504045029 63 163 0.0 1.0 0.00 0.00 0.00 69 1018.6
20260504044537 63 163 0.0 0.0 0.00 0.00 0.00 68 1018.7
20260504044034 63 163 0.0 0.0 0.00 0.00 0.00 69 1018.7
20260504043529 63 163 0.0 0.0 0.00 0.00 0.00 68 1018.7
20260504043029 63 163 0.0 0.0 0.00 0.00 0.00 67 1018.8
20260504042528 64 163 0.0 0.0 0.00 0.00 0.00 66 1018.8
20260504042028 64 163 0.0 0.0 0.00 0.00 0.00 66 1018.8
20260504041528 64 163 0.0 0.0 0.00 0.00 0.00 65 1018.9
20260504041028 64 163 0.0 0.0 0.00 0.00 0.00 65 1018.9
20260504040528 64 163 0.0 0.0 0.00 0.00 0.00 65 1018.8
20260504040028 64 163 0.0 1.0 0.00 0.00 0.00 64 1018.7
20260504035531 64 163 0.0 3.0 0.00 0.00 0.00 64 1018.8
20260504035029 65 163 1.0 3.0 0.00 0.00 0.00 64 1018.7
20260504034544 65 163 0.0 3.0 0.00 0.00 0.00 63 1018.7
20260504034028 65 163 1.0 3.0 0.00 0.00 0.00 62 1018.7
20260504033527 65 163 1.0 5.0 0.00 0.00 0.00 62 1018.8
20260504033027 66 163 2.0 5.0 0.00 0.00 0.00 61 1018.9
20260504032527 66 163 1.0 5.0 0.00 0.00 0.00 61 1018.8
20260504032028 66 162 1.0 4.0 0.00 0.00 0.00 60 1018.8
20260504031527 66 162 1.0 3.0 0.00 0.00 0.00 60 1018.7
20260504031026 66 158 1.0 6.0 0.00 0.00 0.00 59 1018.7
20260504030527 67 164 2.0 6.0 0.00 0.00 0.00 59 1018.6
20260504030039 67 138 1.0 5.0 0.00 0.00 0.00 59 1018.7
20260504025529 67 187 2.0 5.0 0.00 0.00 0.00 58 1018.6
20260504025027 67 175 2.0 6.0 0.00 0.00 0.00 58 1018.5
20260504024526 67 171 1.0 8.0 0.00 0.00 0.00 57 1018.5
20260504024026 67 167 2.0 8.0 0.00 0.00 0.00 56 1018.5
20260504023526 68 162 3.0 7.0 0.00 0.00 0.00 56 1018.5
20260504023027 68 151 2.0 6.0 0.00 0.00 0.00 56 1018.5
20260504022526 68 179 2.0 6.0 0.00 0.00 0.00 55 1018.4
20260504022026 68 180 1.0 5.0 0.00 0.00 0.00 54 1018.5
20260504021526 69 140 1.0 6.0 0.00 0.00 0.00 54 1018.2
20260504021025 69 162 3.0 8.0 0.00 0.00 0.00 53 1018.2
20260504020525 69 105 4.0 8.0 0.00 0.00 0.00 53 1018.2
20260504020027 69 128 3.0 8.0 0.00 0.00 0.00 52 1018.1
20260504015525 69 165 4.0 8.0 0.00 0.00 0.00 51 1018.1
20260504015025 70 167 4.0 9.0 0.00 0.00 0.00 51 1018.2
20260504014535 70 126 4.0 9.0 0.00 0.00 0.00 51 1018.1
20260504014024 70 178 4.0 9.0 0.00 0.00 0.00 51 1018.2
20260504013524 70 149 4.0 8.0 0.00 0.00 0.00 50 1018.1
20260504013024 70 163 5.0 10.0 0.00 0.00 0.00 50 1018.1
20260504012524 71 170 3.0 10.0 0.00 0.00 0.00 49 1018.0
20260504012024 71 178 5.0 10.0 0.00 0.00 0.00 49 1018.0
20260504011524 71 238 3.0 10.0 0.00 0.00 0.00 49 1018.0
20260504011024 71 165 2.0 7.0 0.00 0.00 0.00 49 1017.9
20260504010523 72 153 3.0 8.0 0.00 0.00 0.00 48 1017.9
20260504010023 72 143 4.0 8.0 0.00 0.00 0.00 48 1017.9
20260504005523 72 163 3.0 9.0 0.00 0.00 0.00 48 1017.9
20260504005023 72 153 3.0 10.0 0.00 0.00 0.00 47 1017.9
20260504004523 72 178 4.0 10.0 0.00 0.00 0.00 47 1017.9
20260504004022 73 195 3.0 9.0 0.00 0.00 0.00 47 1018.1
20260504003522 73 186 4.0 8.0 0.00 0.00 0.00 47 1018.1
20260504003030 73 179 3.0 7.0 0.00 0.00 0.00 47 1018.0
20260504002522 73 158 4.0 10.0 0.00 0.00 0.00 47 1017.9
20260504002022 74 152 5.0 10.0 0.00 0.00 0.00 46 1017.9
20260504001521 74 168 3.0 7.0 0.00 0.00 0.00 46 1017.9
20260504001021 75 168 3.0 10.0 0.00 0.00 0.00 45 1017.8
20260504000522 75 161 3.0 10.0 0.00 0.00 0.00 44 1017.9
20260504000021 75 184 3.0 9.0 0.00 0.00 0.00 43 1017.8
20260503235520 76 173 4.0 8.0 0.00 0.00 0.00 42 1018.0
20260503235023 76 169 4.0 10.0 0.00 0.00 0.00 41 1017.9
20260503234535 76 170 3.0 10.0 0.00 0.00 0.00 41 1017.9
20260503234020 76 136 4.0 10.0 0.00 0.00 0.00 41 1017.9
20260503233522 76 167 5.0 10.0 0.00 0.00 0.00 39 1017.9
20260503233018 77 146 5.0 10.0 0.00 0.00 0.00 39 1018.0
20260503232519 77 186 5.0 10.0 0.00 0.00 0.00 38 1018.1
20260503232017 77 139 5.0 10.0 0.00 0.00 0.00 37 1018.1
20260503231517 77 182 4.0 9.0 0.00 0.00 0.00 37 1018.2
20260503231019 77 152 4.0 10.0 0.00 0.00 0.00 38 1018.2
20260503230517 78 167 5.0 9.0 0.00 0.00 0.00 37 1018.2
20260503230017 78 159 5.0 10.0 0.00 0.00 0.00 34 1018.1
20260503225517 78 148 3.0 10.0 0.00 0.00 0.00 32 1018.1
20260503225019 78 177 4.0 10.0 0.00 0.00 0.00 33 1018.3
20260503224515 78 169 2.0 9.0 0.00 0.00 0.00 33 1018.4
20260503224015 78 297 2.0 9.0 0.00 0.00 0.00 33 1018.4
20260503223514 79 133 4.0 9.0 0.00 0.00 0.00 32 1018.5
20260503223014 79 122 3.0 9.0 0.00 0.00 0.00 31 1018.5
20260503222512 79 173 4.0 9.0 0.00 0.00 0.00 33 1018.4
20260503222011 79 96 2.0 9.0 0.00 0.00 0.00 31 1018.6
20260503221511 79 159 2.0 7.0 0.00 0.00 0.00 32 1018.7
20260503221012 79 165 3.0 8.0 0.00 0.00 0.00 31 1018.8
20260503220516 79 171 4.0 8.0 0.00 0.00 0.00 31 1018.9
20260503220011 79 183 2.0 9.0 0.00 0.00 0.00 32 1018.7
20260503215512 79 166 3.0 9.0 0.00 0.00 0.00 30 1018.8
20260503215010 79 171 4.0 9.0 0.00 0.00 0.00 30 1018.8
20260503214513 79 142 3.0 9.0 0.00 0.00 0.00 31 1018.8
20260503214014 79 167 4.0 11.0 0.00 0.00 0.00 31 1018.8
20260503213508 79 182 3.0 11.0 0.00 0.00 0.00 29 1018.9
20260503213007 80 181 6.0 11.0 0.00 0.00 0.00 30 1019.2
20260503212507 80 150 2.0 8.0 0.00 0.00 0.00 32 1019.2
20260503212006 81 115 2.0 9.0 0.00 0.00 0.00 31 1019.4
20260503211506 81 112 1.0 5.0 0.00 0.00 0.00 30 1019.4
20260503211005 80 79 1.0 9.0 0.00 0.00 0.00 31 1019.5
20260503210505 80 202 2.0 12.0 0.00 0.00 0.00 31 1019.6
20260503210006 80 167 5.0 12.0 0.00 0.00 0.00 30 1019.5
20260503205504 81 289 1.0 7.0 0.00 0.00 0.00 32 1019.6
20260503205004 81 281 1.0 7.0 0.00 0.00 0.00 31 1019.7
20260503204504 80 147 1.0 9.0 0.00 0.00 0.00 33 1019.6
20260503204003 80 155 4.0 9.0 0.00 0.00 0.00 30 1019.9
20260503203505 80 150 2.0 7.0 0.00 0.00 0.00 30 1019.9
20260503203001 81 44 2.0 9.0 0.00 0.00 0.00 30 1020.0
20260503202501 80 145 1.0 9.0 0.00 0.00 0.00 32 1020.0
20260503202101 80 177 4.0 9.0 0.00 0.00 0.00 31 1020.0
20260503201605 80 96 3.0 12.0 0.00 0.00 0.00 33 1020.2
20260503201059 80 159 1.0 12.0 0.00 0.00 0.00 31 1020.3
20260503200559 79 202 6.0 10.0 0.00 0.00 0.00 31 1020.3
20260503200101 81 156 3.0 6.0 0.00 0.00 0.00 33 1020.4
20260503195556 80 169 1.0 6.0 0.00 0.00 0.00 32 1020.5
20260503195057 81 86 3.0 8.0 0.00 0.00 0.00 32 1020.6
20260503194555 82 290 3.0 8.0 0.00 0.00 0.00 33 1020.6
20260503194055 81 60 1.0 6.0 0.00 0.00 0.00 31 1020.7
20260503193554 81 135 3.0 6.0 0.00 0.00 0.00 32 1020.8
20260503193059 80 156 1.0 9.0 0.00 0.00 0.00 32 1020.9
20260503192552 81 167 4.0 9.0 0.00 0.00 0.00 32 1021.0
20260503192052 81 169 3.0 9.0 0.00 0.00 0.00 31 1021.0
20260503191615 81 161 4.0 10.0 0.00 0.00 0.00 31 1021.2
20260503191053 82 148 3.0 10.0 0.00 0.00 0.00 30 1021.2
20260503190552 83 214 2.0 5.0 0.00 0.00 0.00 30 1021.3
20260503190055 83 119 1.0 5.0 0.00 0.00 0.00 30 1021.3
20260503185556 81 190 2.0 9.0 0.00 0.00 0.00 33 1021.5
20260503185053 82 144 6.0 9.0 0.00 0.00 0.00 31 1021.6
20260503184559 82 214 1.0 6.0 0.00 0.00 0.00 32 1021.5
20260503184058 81 184 4.0 12.0 0.00 0.00 0.00 31 1021.6
20260503183550 81 100 5.0 12.0 0.00 0.00 0.00 31 1021.7
20260503183110 82 128 2.0 7.0 0.00 0.00 0.00 31 1021.8
20260503182550 82 157 5.0 7.0 0.00 0.00 0.00 30 1021.8
20260503182050 82 184 1.0 7.0 0.00 0.00 0.00 32 1021.8
20260503181550 82 173 1.0 10.0 0.00 0.00 0.00 31 1022.0
20260503181050 80 107 4.0 10.0 0.00 0.00 0.00 31 1022.2
20260503180550 82 168 3.0 9.0 0.00 0.00 0.00 32 1022.1
20260503180050 81 208 2.0 9.0 0.00 0.00 0.00 33 1022.3
20260503175549 82 119 5.0 9.0 0.00 0.00 0.00 31 1022.3
20260503175050 82 101 2.0 6.0 0.00 0.00 0.00 30 1022.4
20260503174549 81 165 0.0 9.0 0.00 0.00 0.00 31 1022.5
20260503174049 79 165 3.0 10.0 0.00 0.00 0.00 31 1022.7
20260503173548 80 170 7.0 11.0 0.00 0.00 0.00 31 1022.8
20260503173111 82 132 6.0 11.0 0.00 0.00 0.00 30 1022.8
20260503172550 84 150 1.0 5.0 0.00 0.00 0.00 33 1022.8
20260503172046 83 164 3.0 8.0 0.00 0.00 0.00 32 1023.0
20260503171549 81 159 1.0 8.0 0.00 0.00 0.00 33 1023.0
20260503171046 83 160 2.0 10.0 0.00 0.00 0.00 31 1023.1
20260503170545 84 153 4.0 11.0 0.00 0.00 0.00 31 1023.1
20260503150528 76 157 3.0 8.0 0.00 0.00 0.00 47 1023.2
20260503131003 64 355 0.0 0.0 0.00 0.01 0.00 86 1022.6
20260503130502 62 355 0.0 0.0 0.00 0.01 0.00 90 1022.6
20260503120111 53 355 0.0 0.0 0.00 0.01 0.00 90 1022.0
20260503110547 54 355 0.0 0.0 0.00 0.01 0.00 89 1021.8
20260503081532 56 355 0.0 0.0 0.00 0.01 0.00 86 1021.2
20260503081031 56 355 0.0 0.0 0.00 0.01 0.00 86 1021.2
20260503080533 56 355 0.0 0.0 0.00 0.01 0.00 86 1021.2
20260503072528 57 355 0.0 0.0 0.00 0.01 0.00 84 1021.2